Flag for Germany Weather past 2 weeks in Eckernförde, Schleswig-Holstein, Germany

Now
52 °F

Overcast.


Feels Like: 52 °F
Forecast: 52 / 64 °F
Wind: 3 mph from Southwest

Location: Schleswig

Current Time: Aug 20, 2014 at 9:14:03 AM

Latest Report: Aug 20, 2014 at 8:00 AM


Visibility: 19 mi

Pressure: 29.75 "Hg

Humidity: 95%

Dew point: 51 °F

Location of EckernfördeLocation

Historic Weather in Eckernförde — Graph

°F

Eckernförde temperature yesterday

Maximum temperature yesterday: 61 °F (at 2:00 PM)
Minimum temperature yesterday: 50 °F (at 6:00 AM)
Average temperature yesterday: 54 °F

Past Weeks' High & Low Weather Summary

 TemperatureHumidityPressure
High77 °F (Aug 8, 2:00 PM)99% (Aug 8, 3:00 AM)30.08 "Hg (Aug 8, 3:00 AM)
Low50 °F (Aug 19, 6:00 AM)36% (Aug 6, 3:00 PM)29.38 "Hg (Aug 18, 11:00 AM)
Average61 °F77%29.77 "Hg
* Reported Aug 5 8:00 AM — Aug 20 8:00 AM, Eckernförde, Weather by CustomWeather, © 2014

Note: Actual official high and low records may vary slightly from our data, if they occured in-between our weather recording intervals... More about our weather records

Advertising

Eckernförde weather history for previous 24 hours

 ConditionsComfort  
Time TempWeatherWind HumidityBarometerVisibility
8:00 AM
Aug 20
52 °FOvercast.3 mph95%29.75 "Hg19 mi
7:00 AM51 °FLight rain. Overcast.2 mph95%29.74 "Hg9 mi
6:00 AM51 °FOvercast.3 mph93%29.73 "Hg16 mi
4:00 AM50 °FPassing clouds.3 mph96%29.72 "Hg16 mi
3:00 AM51 °FOvercast.3 mph96%29.72 "Hg16 mi
2:00 AM52 °FOvercast.3 mph97%29.71 "Hg12 mi
1:00 AM51 °FLight rain. Overcast.5 mph96%29.71 "Hg9 mi
12:00 AM52 °FSprinkles. Overcast.3 mph94%29.71 "Hg4 mi
11:00 PM
Aug 19
51 °FPassing clouds.3 mph91%29.70 "Hg28 mi
10:00 PM53 °FOvercast.3 mph87%29.68 "Hg28 mi
9:00 PM54 °FOvercast.5 mph82%29.68 "Hg28 mi
8:00 PM56 °FPartly sunny.3 mph77%29.67 "Hg31 mi
7:00 PM57 °FSprinkles. Partly sunny.6 mph71%29.67 "Hg31 mi
6:00 PM57 °FSprinkles. Overcast.6 mph77%29.67 "Hg22 mi
4:00 PM59 °FOvercast.7 mph71%29.67 "Hg31 mi
3:00 PM55 °FSprinkles. Overcast.6 mph86%29.68 "Hg19 mi
2:00 PM61 °FPartly sunny.8 mph65%29.67 "Hg25 mi
1:00 PM59 °FPartly sunny.8 mph73%29.68 "Hg19 mi
12:00 PM54 °FOvercast.5 mph85%29.67 "Hg22 mi
10:00 AM59 °FPartly sunny.5 mph72%29.65 "Hg25 mi
9:00 AM56 °FScattered clouds.3 mph80%29.65 "Hg25 mi
Weather by CustomWeather, © 2014

See weather overviewHow to use our weather pages